Location: Powder Track
(41.8531°N, 72.3584°W)
Time: 18:24:28
(UTC+00:00)

Vanguard 1 Rocket - Pass Details

Date: 12 August 2021
Orbit: 650 x 4226 km, 34.3° (Epoch: 20 September)

Event Time Altitude Azimuth Distance (km) Brightness Sun altitude
Rises 15:05:27 0° 268° (W) 8,432 12.1 54.1°
Reaches altitude 10° 15:11:42 10° 266° (W) 7,227 11.8 55.0°
Maximum altitude 15:34:13 64° 193° (SSW) 3,031 11.5 57.8°
Drops below altitude 10° 15:46:19 10° 114° (ESE) 4,183 11.3 59.2°
Sets 15:48:54 0° 111° (ESE) 4,837 11.5 59.4°
